Lyndonville, VT

6:26 AM EST on December 10, 2016 (GMT -0500)
Lyndonville

Weather History for KCDA - June, 2013

Change the Weather History Date:

Friday, June 14, 2013

  Actual Average (K1V4) Record (K1V4)
Temperature  
Mean Temperature 62 °F -  
Max Temperature 74 °F 72 °F 95 °F (1956)
Min Temperature 50 °F 49 °F 35 °F (1970)
Degree Days  
Heating Degree Days 3    
Growing Degree Days 12 (Base 50)    
Moisture  
Dew Point 47 °F    
Average Humidity 61    
Maximum Humidity 91    
Minimum Humidity 30    
Precipitation  
Precipitation 0.00 in - - ()
Sea Level Pressure  
Sea Level Pressure 29.77 in    
Wind  
Wind Speed 3 mph (NW)    
Max Wind Speed 15 mph    
Max Gust Speed 22 mph    
Visibility 10 miles    
Events      
Averages and records for this station are not official NWS values.
T = Trace of Precipitation, MM = Missing Value Source: NWS Daily Summary

Daily Weather History Graph

Daily Weather History Graph

Search for Another Location

Airport or City:

Trip Planner

Search our weather history database for the weather conditions in past years. The results will help you decide how hot, cold, wet, or windy it might be!

Date:

Astronomy

Jun. 14, 2013 Rise Set
Actual Time 5:02 AM EDT 8:34 PM EDT
Civil Twilight 4:25 AM EDT 9:11 PM EDT
Nautical Twilight 3:36 AM EDT 10:00 PM EDT
Astronomical Twilight 2:33 AM EDT 11:03 PM EDT
Moon 10:46 AM EDT (6/14) 11:55 PM EDT (6/14)
Length of Visible Light 16h 45m
Length of Day
15h 32m
Waxing Crescent, 30% of the Moon is Illuminated
Jun 14
Waxing Crescent
Jun 16
First Quarter
Jun 23
Full
Jun 30
Last Quarter
Jul 8
New

Hourly Weather History & Observations

Time (EDT) Temp. Dew Point Humidity Pressure Visibility Wind Dir Wind Speed Gust Speed Precip Events Conditions
12:15 AM 54.7 °F 50.7 °F 86% 29.76 in 10.0 mi Calm Calm - N/A   Clear
12:35 AM 54.7 °F 50.5 °F 86% 29.76 in 10.0 mi Calm Calm - N/A   Clear
12:55 AM 54.0 °F 50.4 °F 88% 29.76 in 10.0 mi Calm Calm - N/A   Clear
1:15 AM 54.0 °F 50.7 °F 89% 29.75 in 10.0 mi Calm Calm - N/A   Clear
1:35 AM 53.6 °F 50.5 °F 89% 29.74 in 10.0 mi Calm Calm - N/A   Scattered Clouds
1:55 AM 53.1 °F 50.0 °F 89% 29.74 in 10.0 mi Calm Calm - N/A   Scattered Clouds
2:15 AM 52.9 °F 50.0 °F 90% 29.73 in 10.0 mi Calm Calm - N/A   Scattered Clouds
2:35 AM 54.7 °F 50.4 °F 85% 29.72 in 10.0 mi Calm Calm - N/A   Mostly Cloudy
2:55 AM 53.2 °F 49.5 °F 87% 29.72 in 10.0 mi Calm Calm - N/A   Mostly Cloudy
3:15 AM 52.7 °F 49.3 °F 88% 29.72 in 10.0 mi Calm Calm - N/A   Scattered Clouds
3:35 AM 53.6 °F 50.2 °F 88% 29.72 in 10.0 mi Calm Calm - N/A   Mostly Cloudy
3:55 AM 52.7 °F 49.3 °F 88% 29.72 in 10.0 mi Calm Calm - N/A   Scattered Clouds
4:15 AM 52.7 °F 49.3 °F 88% 29.72 in 10.0 mi Calm Calm - N/A   Clear
4:35 AM 52.7 °F 49.3 °F 88% 29.73 in 10.0 mi Calm Calm - N/A   Clear
4:55 AM 52.5 °F 48.9 °F 88% 29.74 in 10.0 mi Calm Calm - N/A   Clear
5:15 AM 52.3 °F 49.1 °F 89% 29.74 in 10.0 mi Calm Calm - N/A   Clear
5:35 AM 52.9 °F 48.9 °F 86% 29.74 in 10.0 mi Calm Calm - N/A   Clear
5:55 AM 51.3 °F 48.2 °F 89% 29.75 in 7.0 mi Calm Calm - N/A   Clear
6:15 AM 50.9 °F 48.2 °F 90% 29.75 in 1.5 mi Calm Calm - N/A   Mist
6:35 AM 52.7 °F 50.0 °F 91% 29.74 in 10.0 mi Calm Calm - N/A   Clear
6:55 AM 53.6 °F 50.4 °F 89% 29.75 in 10.0 mi Calm Calm - N/A   Clear
7:15 AM 54.5 °F 50.5 °F 86% 29.75 in 10.0 mi Calm Calm - N/A   Clear
7:35 AM 54.5 °F 50.5 °F 86% 29.75 in 10.0 mi Calm Calm - N/A   Clear
7:55 AM 55.6 °F 51.1 °F 85% 29.76 in 10.0 mi Calm Calm - N/A   Clear
8:15 AM 57.2 °F 51.4 °F 81% 29.76 in 10.0 mi Calm Calm - N/A   Clear
8:35 AM 59.5 °F 51.3 °F 74% 29.76 in 10.0 mi Calm Calm - N/A   Clear
8:55 AM 60.8 °F 51.1 °F 70% 29.76 in 10.0 mi Calm Calm - N/A   Clear
9:15 AM 61.7 °F 52.0 °F 70% 29.76 in 10.0 mi Calm Calm - N/A   Clear
9:35 AM 63.7 °F 52.7 °F 67% 29.76 in 10.0 mi NNE 3.5 mph - N/A   Clear
9:55 AM 65.7 °F 52.7 °F 63% 29.77 in 10.0 mi Calm Calm - N/A   Scattered Clouds
10:15 AM 67.1 °F 50.0 °F 54% 29.76 in 10.0 mi North 8.1 mph - N/A   Scattered Clouds
10:35 AM 67.8 °F 48.2 °F 49% 29.76 in 10.0 mi NNW 4.6 mph - N/A   Clear
10:55 AM 68.2 °F 47.7 °F 48% 29.77 in 10.0 mi NNE 3.5 mph - N/A   Scattered Clouds
11:15 AM 69.6 °F 46.6 °F 44% 29.77 in 10.0 mi North 10.4 mph 17.3 mph N/A   Scattered Clouds
11:35 AM 70.0 °F 46.6 °F 43% 29.76 in 10.0 mi NW 9.2 mph - N/A   Scattered Clouds
11:55 AM 68.7 °F 46.9 °F 46% 29.76 in 10.0 mi NNW 11.5 mph - N/A   Mostly Cloudy
12:15 PM 69.1 °F 44.8 °F 42% 29.76 in 10.0 mi North 8.1 mph 17.3 mph N/A   Scattered Clouds
12:35 PM 70.7 °F 45.9 °F 41% 29.76 in 10.0 mi North 9.2 mph 17.3 mph N/A   Scattered Clouds
12:55 PM 70.9 °F 43.3 °F 37% 29.76 in 10.0 mi NNW 9.2 mph - N/A   Clear
1:15 PM 71.8 °F 43.9 °F 37% 29.76 in 10.0 mi North 12.7 mph 17.3 mph N/A   Clear
1:35 PM 72.0 °F 43.5 °F 36% 29.76 in 10.0 mi North 9.2 mph - N/A   Clear
1:55 PM 72.1 °F 41.7 °F 33% 29.76 in 10.0 mi NW 8.1 mph - N/A   Clear
2:15 PM 73.2 °F 41.0 °F 31% 29.76 in 10.0 mi NNW 8.1 mph 18.4 mph N/A   Clear
2:35 PM 73.0 °F 39.7 °F 30% 29.76 in 10.0 mi NW 6.9 mph - N/A   Scattered Clouds
2:55 PM 72.9 °F 43.2 °F 34% 29.76 in 10.0 mi NW 10.4 mph 16.1 mph N/A   Scattered Clouds
3:15 PM 74.1 °F 44.4 °F 35% 29.76 in 10.0 mi NNW 11.5 mph 18.4 mph N/A   Scattered Clouds
3:35 PM 73.8 °F 44.1 °F 34% 29.76 in 10.0 mi NW 11.5 mph 19.6 mph N/A   Scattered Clouds
3:55 PM 72.1 °F 42.4 °F 34% 29.75 in 10.0 mi NNW 8.1 mph 16.1 mph N/A   Scattered Clouds
4:15 PM 73.8 °F 43.7 °F 34% 29.75 in 10.0 mi North 11.5 mph 18.4 mph N/A   Scattered Clouds
4:35 PM 74.1 °F 45.0 °F 35% 29.75 in 10.0 mi NW 12.7 mph 21.9 mph N/A   Scattered Clouds
4:55 PM 73.8 °F 46.6 °F 38% 29.76 in 10.0 mi WNW 9.2 mph 16.1 mph N/A   Scattered Clouds
5:15 PM 73.4 °F 47.7 °F 40% 29.76 in 10.0 mi NNW 13.8 mph 17.3 mph N/A   Scattered Clouds
5:35 PM 72.5 °F 45.0 °F 37% 29.76 in 10.0 mi NW 13.8 mph 19.6 mph N/A   Scattered Clouds
5:55 PM 72.0 °F 44.1 °F 37% 29.76 in 10.0 mi WNW 11.5 mph 16.1 mph N/A   Clear
6:15 PM 71.6 °F 44.2 °F 37% 29.76 in 10.0 mi NW 8.1 mph 17.3 mph N/A   Clear
6:35 PM 71.2 °F 44.4 °F 38% 29.77 in 10.0 mi NW 10.4 mph 18.4 mph N/A   Clear
6:55 PM 70.9 °F 46.8 °F 42% 29.78 in 10.0 mi WNW 12.7 mph 16.1 mph N/A   Clear
7:15 PM 69.6 °F 46.4 °F 43% 29.78 in 10.0 mi WNW 8.1 mph - N/A   Clear
7:35 PM 68.2 °F 47.1 °F 47% 29.79 in 10.0 mi WNW 10.4 mph 16.1 mph N/A   Clear
7:55 PM 67.1 °F 47.7 °F 50% 29.80 in 10.0 mi WNW 6.9 mph - N/A   Clear
8:15 PM 66.2 °F 48.9 °F 54% 29.79 in 10.0 mi WNW 9.2 mph - N/A   Clear
8:35 PM 65.3 °F 49.1 °F 56% 29.80 in 10.0 mi WNW 15.0 mph 19.6 mph N/A   Clear
8:55 PM 64.2 °F 46.4 °F 52% 29.80 in 10.0 mi WNW 8.1 mph - N/A   Clear
9:15 PM 61.7 °F 47.3 °F 59% 29.81 in 10.0 mi WNW 5.8 mph - N/A   Clear
9:35 PM 61.2 °F 48.7 °F 64% 29.82 in 10.0 mi WNW 5.8 mph - N/A   Clear
9:55 PM 61.7 °F 49.1 °F 63% 29.82 in 10.0 mi NW 8.1 mph - N/A   Clear
10:15 PM 61.7 °F 48.6 °F 62% 29.83 in 10.0 mi NW 5.8 mph - N/A   Clear
10:35 PM 60.8 °F 45.7 °F 57% 29.83 in 10.0 mi NW 5.8 mph - N/A   Clear
10:55 PM 60.8 °F 43.0 °F 52% 29.83 in 10.0 mi NW 5.8 mph - N/A   Clear
11:15 PM 60.1 °F 41.0 °F 49% 29.84 in 10.0 mi NW 5.8 mph - N/A   Clear
11:35 PM 59.9 °F 38.8 °F 46% 29.84 in 10.0 mi NW 4.6 mph - N/A   Clear
11:55 PM 55.6 °F 45.9 °F 70% 29.85 in 10.0 mi WSW 4.6 mph - N/A   Clear